Time,TemperatureF,DewpointF,PressureIn,WindDirection,WindDirectionDegrees,WindSpeedMPH,WindSpeedGustMPH,Humidity,HourlyPrecipIn,Conditions,Clouds,dailyrainin,SoftwareType,DateUTC
2013-01-01 00:02:00,39.0,21.0,-100.00,ENE,68,3.0,4.0,49,-99.99,,,-99.99,,2013-01-01 08:02:00,
2013-01-01 00:11:00,39.0,22.0,-100.00,ENE,76,3.0,5.0,51,-99.99,,,-99.99,,2013-01-01 08:11:00,
2013-01-01 00:22:00,40.0,23.0,-100.00,East,79,3.0,4.0,51,-99.99,,,-99.99,,2013-01-01 08:22:00,
2013-01-01 00:32:00,40.0,23.0,-100.00,East,79,3.0,4.0,51,-99.99,,,-99.99,,2013-01-01 08:32:00,
2013-01-01 00:42:00,39.0,23.0,-100.00,ESE,102,4.0,5.0,52,-99.99,,,-99.99,,2013-01-01 08:42:00,
2013-01-01 00:53:00,39.0,23.0,-100.00,ESE,103,4.0,6.0,52,-99.99,,,-99.99,,2013-01-01 08:53:00,
2013-01-01 01:02:00,39.0,23.0,-100.00,ESE,103,4.0,6.0,52,-99.99,,,-99.99,,2013-01-01 09:02:00,
2013-01-01 01:11:00,39.0,23.0,-100.00,East,99,5.0,6.0,53,-99.99,,,-99.99,,2013-01-01 09:11:00,
2013-01-01 01:22:00,39.0,23.0,-100.00,ESE,103,5.0,6.0,53,-99.99,,,-99.99,,2013-01-01 09:22:00,
2013-01-01 01:32:00,40.0,24.0,-100.00,ESE,106,5.0,6.0,53,-99.99,,,-99.99,,2013-01-01 09:32:00,
2013-01-01 01:42:00,40.0,23.0,-100.00,ESE,109,6.0,6.0,51,-99.99,,,-99.99,,2013-01-01 09:42:00,
2013-01-01 01:52:00,41.0,24.0,-100.00,East,96,4.0,5.0,51,-99.99,,,-99.99,,2013-01-01 09:52:00,
2013-01-01 02:02:00,41.0,24.0,-100.00,East,96,4.0,5.0,51,-99.99,,,-99.99,,2013-01-01 10:02:00,
2013-01-01 02:12:00,41.0,23.0,-100.00,East,91,4.0,5.0,49,-99.99,,,-99.99,,2013-01-01 10:12:00,
2013-01-01 02:22:00,41.0,23.0,-100.00,East,80,3.0,5.0,49,-99.99,,,-99.99,,2013-01-01 10:22:00,
2013-01-01 02:32:00,41.0,23.0,-100.00,ENE,73,5.0,8.0,48,-99.99,,,-99.99,,2013-01-01 10:32:00,
2013-01-01 02:42:00,40.0,21.0,-100.00,ENE,72,6.0,8.0,46,-99.99,,,-99.99,,2013-01-01 10:42:00,
2013-01-01 02:52:00,41.0,20.0,-100.00,East,91,7.0,9.0,43,-99.99,,,-99.99,,2013-01-01 10:52:00,
2013-01-01 03:02:00,40.0,19.0,-100.00,East,99,7.0,8.0,43,-99.99,,,-99.99,,2013-01-01 11:02:00,
2013-01-01 03:12:00,41.0,18.0,-100.00,East,91,7.0,9.0,39,-99.99,,,-99.99,,2013-01-01 11:12:00,
2013-01-01 03:22:00,41.0,16.0,-100.00,East,80,7.0,9.0,36,-99.99,,,-99.99,,2013-01-01 11:22:00,
2013-01-01 03:32:00,40.0,16.0,-100.00,ENE,73,7.0,9.0,38,-99.99,,,-99.99,,2013-01-01 11:32:00,
2013-01-01 03:42:00,41.0,16.0,-100.00,East,82,4.0,7.0,36,-99.99,,,-99.99,,2013-01-01 11:42:00,
2013-01-01 03:52:00,41.0,13.0,-100.00,ESE,117,3.0,4.0,32,-99.99,,,-99.99,,2013-01-01 11:52:00,
2013-01-01 04:02:00,41.0,13.0,-100.00,ESE,117,3.0,4.0,32,-99.99,,,-99.99,,2013-01-01 12:02:00,
2013-01-01 04:12:00,41.0,17.0,-100.00,East,81,6.0,9.0,37,-99.99,,,-99.99,,2013-01-01 12:12:00,
2013-01-01 04:22:00,40.0,18.0,-100.00,East,96,7.0,10.0,40,-99.99,,,-99.99,,2013-01-01 12:22:00,
2013-01-01 04:32:00,41.0,18.0,-100.00,East,97,6.0,8.0,39,-99.99,,,-99.99,,2013-01-01 12:32:00,
2013-01-01 04:42:00,41.0,18.0,-100.00,East,97,6.0,8.0,39,-99.99,,,-99.99,,2013-01-01 12:42:00,
2013-01-01 04:52:00,42.0,19.0,-100.00,East,90,7.0,11.0,39,-99.99,,,-99.99,,2013-01-01 12:52:00,
2013-01-01 05:02:00,41.0,19.0,-100.00,East,88,9.0,10.0,41,-99.99,,,-99.99,,2013-01-01 13:02:00,
2013-01-01 05:12:00,41.0,20.0,-100.00,East,87,9.0,11.0,42,-99.99,,,-99.99,,2013-01-01 13:12:00,
2013-01-01 05:22:00,41.0,20.0,-100.00,East,87,9.0,11.0,43,-99.99,,,-99.99,,2013-01-01 13:22:00,
2013-01-01 05:32:00,42.0,19.0,-100.00,ENE,70,6.0,8.0,40,-99.99,,,-99.99,,2013-01-01 13:32:00,
2013-01-01 05:42:00,41.0,20.0,-100.00,ENE,72,6.0,9.0,42,-99.99,,,-99.99,,2013-01-01 13:42:00,
2013-01-01 05:52:00,41.0,19.0,-100.00,East,86,6.0,9.0,40,-99.99,,,-99.99,,2013-01-01 13:52:00,
2013-01-01 06:02:00,41.0,19.0,-100.00,East,86,6.0,9.0,40,-99.99,,,-99.99,,2013-01-01 14:02:00,
2013-01-01 06:12:00,42.0,18.0,-100.00,ENE,76,4.0,5.0,38,-99.99,,,-99.99,,2013-01-01 14:12:00,
2013-01-01 06:22:00,42.0,18.0,-100.00,ENE,73,2.0,4.0,37,-99.99,,,-99.99,,2013-01-01 14:22:00,
2013-01-01 06:32:00,41.0,19.0,-100.00,SSE,168,2.0,4.0,40,-99.99,,,-99.99,,2013-01-01 14:32:00,
2013-01-01 06:42:00,41.0,19.0,-100.00,SE,131,5.0,7.0,40,-99.99,,,-99.99,,2013-01-01 14:42:00,
2013-01-01 06:52:00,42.0,18.0,-100.00,ESE,107,8.0,13.0,38,-99.99,,,-99.99,,2013-01-01 14:52:00,
2013-01-01 07:02:00,41.0,19.0,-100.00,East,99,11.0,15.0,40,-99.99,,,-99.99,,2013-01-01 15:02:00,
2013-01-01 07:12:00,41.0,20.0,-100.00,East,91,8.0,11.0,43,-99.99,,,-99.99,,2013-01-01 15:12:00,
2013-01-01 07:22:00,41.0,21.0,-100.00,East,97,11.0,18.0,44,-99.99,,,-99.99,,2013-01-01 15:22:00,
2013-01-01 07:32:00,41.0,20.0,-100.00,East,94,13.0,19.0,43,-99.99,,,-99.99,,2013-01-01 15:32:00,
2013-01-01 07:42:00,41.0,20.0,-100.00,East,94,13.0,19.0,43,-99.99,,,-99.99,,2013-01-01 15:42:00,
2013-01-01 07:52:00,41.0,20.0,-100.00,East,85,13.0,18.0,43,-99.99,,,-99.99,,2013-01-01 15:52:00,
2013-01-01 08:02:00,42.0,21.0,-100.00,East,83,11.0,17.0,42,-99.99,,,-99.99,,2013-01-01 16:02:00,
2013-01-01 08:12:00,42.0,20.0,-100.00,East,87,10.0,16.0,41,-99.99,,,-99.99,,2013-01-01 16:12:00,
2013-01-01 08:22:00,43.0,20.0,-100.00,East,92,11.0,19.0,39,-99.99,,,-99.99,,2013-01-01 16:22:00,
2013-01-01 08:32:00,42.0,19.0,-100.00,East,93,8.0,16.0,40,-99.99,,,-99.99,,2013-01-01 16:32:00,
2013-01-01 08:42:00,42.0,19.0,-100.00,East,93,8.0,16.0,40,-99.99,,,-99.99,,2013-01-01 16:42:00,
2013-01-01 08:52:00,43.0,21.0,-100.00,East,88,8.0,13.0,41,-99.99,,,-99.99,,2013-01-01 16:52:00,
2013-01-01 09:02:00,44.0,21.0,-100.00,East,85,9.0,16.0,40,-99.99,,,-99.99,,2013-01-01 17:02:00,
2013-01-01 09:12:00,44.0,21.0,-100.00,East,91,9.0,15.0,39,-99.99,,,-99.99,,2013-01-01 17:12:00,
2013-01-01 09:22:00,44.0,21.0,-100.00,East,96,9.0,14.0,39,-99.99,,,-99.99,,2013-01-01 17:22:00,
2013-01-01 09:32:00,45.0,21.0,-100.00,East,83,8.0,13.0,38,-99.99,,,-99.99,,2013-01-01 17:32:00,
2013-01-01 09:42:00,45.0,21.0,-100.00,East,83,8.0,13.0,38,-99.99,,,-99.99,,2013-01-01 17:42:00,
2013-01-01 09:52:00,45.0,21.0,-100.00,East,91,7.0,12.0,38,-99.99,,,-99.99,,2013-01-01 17:52:00,
2013-01-01 10:02:00,46.0,21.0,-100.00,East,82,6.0,14.0,37,-99.99,,,-99.99,,2013-01-01 18:02:00,
2013-01-01 10:12:00,45.0,20.0,-100.00,East,81,9.0,16.0,37,-99.99,,,-99.99,,2013-01-01 18:12:00,
2013-01-01 10:22:00,46.0,20.0,-100.00,East,83,8.0,14.0,35,-99.99,,,-99.99,,2013-01-01 18:22:00,
2013-01-01 10:33:00,46.0,22.0,-100.00,East,84,7.0,19.0,38,-99.99,,,-99.99,,2013-01-01 18:33:00,
2013-01-01 10:42:00,46.0,22.0,-100.00,East,84,7.0,19.0,38,-99.99,,,-99.99,,2013-01-01 18:42:00,
2013-01-01 10:52:00,45.0,22.0,-100.00,East,84,9.0,18.0,39,-99.99,,,-99.99,,2013-01-01 18:52:00,
2013-01-01 11:02:00,45.0,22.0,-100.00,East,79,9.0,17.0,40,-99.99,,,-99.99,,2013-01-01 19:02:00,
2013-01-01 11:12:00,45.0,22.0,-100.00,East,80,8.0,16.0,40,-99.99,,,-99.99,,2013-01-01 19:12:00,
2013-01-01 11:22:00,45.0,23.0,-100.00,East,89,7.0,14.0,41,-99.99,,,-99.99,,2013-01-01 19:22:00,
2013-01-01 11:32:00,45.0,23.0,-100.00,East,82,10.0,16.0,41,-99.99,,,-99.99,,2013-01-01 19:32:00,
2013-01-01 11:42:00,45.0,23.0,-100.00,ENE,78,7.0,13.0,42,-99.99,,,-99.99,,2013-01-01 19:42:00,
2013-01-01 11:52:00,45.0,23.0,-100.00,East,80,9.0,16.0,42,-99.99,,,-99.99,,2013-01-01 19:52:00,
2013-01-01 12:02:00,45.0,23.0,-100.00,East,80,9.0,16.0,42,-99.99,,,-99.99,,2013-01-01 20:02:00,
2013-01-01 12:12:00,46.0,23.0,-100.00,East,81,12.0,19.0,40,-99.99,,,-99.99,,2013-01-01 20:12:00,
2013-01-01 12:22:00,46.0,22.0,-100.00,East,82,11.0,17.0,39,-99.99,,,-99.99,,2013-01-01 20:22:00,
2013-01-01 12:32:00,46.0,21.0,-100.00,ENE,73,11.0,18.0,37,-99.99,,,-99.99,,2013-01-01 20:32:00,
2013-01-01 12:42:00,46.0,21.0,-100.00,ENE,70,9.0,17.0,37,-99.99,,,-99.99,,2013-01-01 20:42:00,
2013-01-01 12:52:00,46.0,20.0,-100.00,East,80,13.0,21.0,35,-99.99,,,-99.99,,2013-01-01 20:52:00,
2013-01-01 13:02:00,47.0,21.0,-100.00,East,79,13.0,22.0,35,-99.99,,,-99.99,,2013-01-01 21:02:00,
2013-01-01 13:12:00,47.0,21.0,-100.00,ENE,74,11.0,20.0,35,-99.99,,,-99.99,,2013-01-01 21:12:00,
2013-01-01 13:22:00,46.0,21.0,-100.00,ENE,67,11.0,19.0,36,-99.99,,,-99.99,,2013-01-01 21:22:00,
2013-01-01 13:32:00,46.0,21.0,-100.00,ENE,78,10.0,16.0,36,-99.99,,,-99.99,,2013-01-01 21:32:00,
2013-01-01 13:42:00,46.0,21.0,-100.00,ENE,78,10.0,18.0,36,-99.99,,,-99.99,,2013-01-01 21:42:00,
2013-01-01 13:52:00,46.0,20.0,-100.00,ENE,78,11.0,20.0,35,-99.99,,,-99.99,,2013-01-01 21:52:00,
2013-01-01 14:02:00,46.0,20.0,-100.00,ENE,78,11.0,20.0,35,-99.99,,,-99.99,,2013-01-01 22:02:00,
2013-01-01 14:12:00,45.0,18.0,-100.00,East,79,12.0,20.0,34,-99.99,,,-99.99,,2013-01-01 22:12:00,
2013-01-01 14:22:00,45.0,19.0,-100.00,East,81,11.0,17.0,35,-99.99,,,-99.99,,2013-01-01 22:22:00,
2013-01-01 14:32:00,45.0,19.0,-100.00,East,81,14.0,21.0,35,-99.99,,,-99.99,,2013-01-01 22:32:00,
2013-01-01 14:42:00,45.0,18.0,-100.00,ENE,75,13.0,23.0,34,-99.99,,,-99.99,,2013-01-01 22:42:00,
2013-01-01 14:52:00,45.0,18.0,-100.00,ENE,76,13.0,24.0,34,-99.99,,,-99.99,,2013-01-01 22:52:00,
2013-01-01 15:02:00,44.0,18.0,-100.00,East,79,13.0,24.0,35,-99.99,,,-99.99,,2013-01-01 23:02:00,
2013-01-01 15:12:00,44.0,18.0,-100.00,East,82,16.0,26.0,35,-99.99,,,-99.99,,2013-01-01 23:12:00,
2013-01-01 15:22:00,43.0,17.0,-100.00,East,80,17.0,31.0,35,-99.99,,,-99.99,,2013-01-01 23:22:00,
2013-01-01 15:32:00,43.0,18.0,-100.00,East,81,16.0,27.0,36,-99.99,,,-99.99,,2013-01-01 23:32:00,
2013-01-01 15:42:00,43.0,18.0,-100.00,East,81,16.0,27.0,36,-99.99,,,-99.99,,2013-01-01 23:42:00,
2013-01-01 15:52:00,42.0,17.0,-100.00,East,80,16.0,28.0,36,-99.99,,,-99.99,,2013-01-01 23:52:00,
2013-01-01 16:02:00,42.0,17.0,-100.00,East,79,14.0,24.0,36,-99.99,,,-99.99,,2013-01-02 00:02:00,
2013-01-01 16:12:00,42.0,17.0,-100.00,East,80,15.0,25.0,36,-99.99,,,-99.99,,2013-01-02 00:12:00,
2013-01-01 16:22:00,42.0,17.0,-100.00,East,82,14.0,26.0,36,-99.99,,,-99.99,,2013-01-02 00:22:00,
2013-01-01 16:32:00,42.0,17.0,-100.00,ENE,75,14.0,25.0,36,-99.99,,,-99.99,,2013-01-02 00:32:00,
2013-01-01 16:42:00,42.0,16.0,-100.00,ENE,78,16.0,27.0,34,-99.99,,,-99.99,,2013-01-02 00:42:00,
2013-01-01 16:52:00,42.0,15.0,-100.00,East,79,17.0,29.0,33,-99.99,,,-99.99,,2013-01-02 00:52:00,
2013-01-01 17:02:00,41.0,13.0,-100.00,ENE,78,18.0,28.0,31,-99.99,,,-99.99,,2013-01-02 01:02:00,
2013-01-01 17:11:00,41.0,13.0,-100.00,ENE,74,15.0,31.0,31,-99.99,,,-99.99,,2013-01-02 01:11:00,
2013-01-01 17:22:00,41.0,11.0,-100.00,ENE,78,16.0,28.0,29,-99.99,,,-99.99,,2013-01-02 01:22:00,
2013-01-01 17:32:00,41.0,10.0,-100.00,East,83,16.0,30.0,27,-99.99,,,-99.99,,2013-01-02 01:32:00,
2013-01-01 17:42:00,41.0,10.0,-100.00,East,83,16.0,30.0,27,-99.99,,,-99.99,,2013-01-02 01:42:00,
2013-01-01 17:52:00,41.0,10.0,-100.00,East,85,18.0,32.0,27,-99.99,,,-99.99,,2013-01-02 01:52:00,
2013-01-01 18:02:00,41.0,10.0,-100.00,East,85,18.0,32.0,28,-99.99,,,-99.99,,2013-01-02 02:02:00,
2013-01-01 18:12:00,41.0,10.0,-100.00,East,86,18.0,31.0,28,-99.99,,,-99.99,,2013-01-02 02:12:00,
2013-01-01 18:22:00,41.0,10.0,-100.00,East,83,18.0,35.0,28,-99.99,,,-99.99,,2013-01-02 02:22:00,
2013-01-01 18:32:00,42.0,10.0,-100.00,ENE,74,19.0,36.0,27,-99.99,,,-99.99,,2013-01-02 02:32:00,
2013-01-01 18:42:00,42.0,10.0,-100.00,ENE,74,19.0,36.0,27,-99.99,,,-99.99,,2013-01-02 02:42:00,
2013-01-01 18:52:00,42.0,10.0,-100.00,ENE,76,19.0,36.0,26,-99.99,,,-99.99,,2013-01-02 02:52:00,
2013-01-01 19:02:00,42.0,10.0,-100.00,ENE,78,20.0,37.0,27,-99.99,,,-99.99,,2013-01-02 03:02:00,
2013-01-01 19:11:00,42.0,10.0,-100.00,ENE,74,21.0,41.0,27,-99.99,,,-99.99,,2013-01-02 03:11:00,
2013-01-01 19:22:00,42.0,10.0,-100.00,ENE,74,20.0,45.0,27,-99.99,,,-99.99,,2013-01-02 03:22:00,
2013-01-01 19:32:00,42.0,10.0,-100.00,ENE,71,23.0,44.0,27,-99.99,,,-99.99,,2013-01-02 03:32:00,
2013-01-01 19:42:00,41.0,10.0,-100.00,ENE,71,20.0,47.0,28,-99.99,,,-99.99,,2013-01-02 03:42:00,
2013-01-01 19:52:00,41.0,10.0,-100.00,ENE,75,19.0,39.0,27,-99.99,,,-99.99,,2013-01-02 03:52:00,
2013-01-01 20:02:00,41.0,10.0,-100.00,ENE,75,22.0,40.0,28,-99.99,,,-99.99,,2013-01-02 04:02:00,
2013-01-01 20:12:00,41.0,10.0,-100.00,ENE,77,21.0,44.0,28,-99.99,,,-99.99,,2013-01-02 04:12:00,
2013-01-01 20:22:00,41.0,10.0,-100.00,ENE,74,21.0,38.0,28,-99.99,,,-99.99,,2013-01-02 04:22:00,
2013-01-01 20:32:00,41.0,10.0,-100.00,East,82,23.0,40.0,28,-99.99,,,-99.99,,2013-01-02 04:32:00,
2013-01-01 20:42:00,41.0,10.0,-100.00,East,82,23.0,40.0,28,-99.99,,,-99.99,,2013-01-02 04:42:00,
2013-01-01 20:52:00,41.0,10.0,-100.00,East,80,21.0,38.0,28,-99.99,,,-99.99,,2013-01-02 04:52:00,
2013-01-01 21:02:00,41.0,10.0,-100.00,ENE,78,22.0,40.0,28,-99.99,,,-99.99,,2013-01-02 05:02:00,
2013-01-01 21:12:00,41.0,10.0,-100.00,ENE,77,22.0,40.0,28,-99.99,,,-99.99,,2013-01-02 05:12:00,
2013-01-01 21:22:00,41.0,10.0,-100.00,ENE,77,20.0,41.0,28,-99.99,,,-99.99,,2013-01-02 05:22:00,
2013-01-01 21:32:00,41.0,10.0,-100.00,East,84,23.0,36.0,28,-99.99,,,-99.99,,2013-01-02 05:32:00,
2013-01-01 21:42:00,41.0,10.0,-100.00,East,79,16.0,31.0,28,-99.99,,,-99.99,,2013-01-02 05:42:00,
2013-01-01 21:52:00,41.0,10.0,-100.00,East,81,17.0,32.0,28,-99.99,,,-99.99,,2013-01-02 05:52:00,
2013-01-01 22:02:00,41.0,10.0,-100.00,ENE,78,16.0,33.0,28,-99.99,,,-99.99,,2013-01-02 06:02:00,
2013-01-01 22:11:00,42.0,11.0,-100.00,East,81,18.0,35.0,28,-99.99,,,-99.99,,2013-01-02 06:11:00,
2013-01-01 22:22:00,42.0,10.0,-100.00,East,86,21.0,32.0,27,-99.99,,,-99.99,,2013-01-02 06:22:00,
2013-01-01 22:32:00,42.0,11.0,-100.00,East,90,23.0,36.0,28,-99.99,,,-99.99,,2013-01-02 06:32:00,
2013-01-01 22:42:00,42.0,11.0,-100.00,East,90,23.0,36.0,28,-99.99,,,-99.99,,2013-01-02 06:42:00,
2013-01-01 22:52:00,42.0,11.0,-100.00,East,88,25.0,40.0,28,-99.99,,,-99.99,,2013-01-02 06:52:00,
2013-01-01 23:02:00,41.0,11.0,-100.00,East,79,22.0,43.0,29,-99.99,,,-99.99,,2013-01-02 07:02:00,
2013-01-01 23:12:00,41.0,11.0,-100.00,East,79,23.0,39.0,29,-99.99,,,-99.99,,2013-01-02 07:12:00,
2013-01-01 23:22:00,41.0,11.0,-100.00,East,80,22.0,37.0,29,-99.99,,,-99.99,,2013-01-02 07:22:00,
2013-01-01 23:32:00,41.0,11.0,-100.00,ENE,77,21.0,32.0,29,-99.99,,,-99.99,,2013-01-02 07:32:00,
2013-01-01 23:42:00,41.0,11.0,-100.00,East,79,20.0,44.0,29,-99.99,,,-99.99,,2013-01-02 07:42:00,
2013-01-01 23:52:00,41.0,11.0,-100.00,ENE,73,21.0,40.0,29,-99.99,,,-99.99,,2013-01-02 07:52:00,